Content
SEND FEEDBACK

Daily
Averages
Monthly
Summary
Canada

VANCOUVER - CITY HALL, BRITISH COLUMBIA


Home > North America > Canada > British Columbia
Elevation: 283 feet     Latitude: 49 17N     Longitude: 123 07W

WEATHER
 
SELECT A DAY
Number of Records: 167,634;   Date Range: 4/23/95 - 4/17/14
 
SHARE

PRINT THIS DATA

[ ← Previous Day ]
WEATHER ALMANAC - MARCH 29, 2013
[ Next Day → ]
[ °C ]   °F
Weather ElementAverageHighLow
Temperature49.5 °F56.5 °F (3:00 pm)43.7 °F (4:00 am)
Dewpoint41 °F43.9 °F (4:00 pm)37.8 °F (2:00 am)
Humidity71.9 %82 % (4:00 am)52 % (5:00 pm)
Barometer30.23 in30.27 in (11:00 am)30.15 in (1:00 am)
Wind Speed1.8 mph4.6 mph (1:00 am)
Weather ElementAverage
Wind DirectionESE (101.5 °)

Weather ElementTotal
Precipitation---
Heating Degree Days14.9 (Base 65)
Growing Degree Days0.1 (Base 50)
Averaged from 27 records on March 29, 2013
WEATHER CONDITIONS BREAKOUT
WIND DIRECTION BREAKOUT
WEATHER BY HOUR - MARCH 29, 2013
[ °C ]   °F
Local TimeTemperatureDewpointHumidityBarometerVisibilityWind DirectionWind SpeedGust SpeedPrecipitationEventsConditions
1:00 AM46.2 °F37.9 °F73 %30.15 inNorth (10°)4.6 mph
2:00 AM44.2 °F37.8 °F78 %30.16 inENE (60°)2.3 mph
3:00 AM44.4 °F38.5 °F80 %30.17 inNorth (10°)2.3 mph
4:00 AM43.7 °F38.5 °F82 %30.19 inNorth (10°)1.2 mph
5:00 AM45.0 °F39.0 °F72 %30.20 inCalm
5:00 AM45.1 °F39.0 °F79 %30.20 inCalm
6:00 AM44.8 °F39.4 °F81 %30.21 inNNE (20°)2.3 mph
7:00 AM44.4 °F38.8 °F81 %30.23 inNNE (20°)3.5 mph
8:00 AM45.9 °F39.9 °F80 %30.24 inCalm
9:00 AM46.6 °F40.8 °F80 %30.25 inCalm
10:00 AM49.8 °F39.9 °F69 %30.26 inSSW (210°)1.2 mph
11:00 AM53.0 °F43.0 °F61 %30.27 inSouth (190°)2.3 mph
11:00 AM53.4 °F43.3 °F69 %30.27 inSouth (190°)2.3 mph
12:00 PM53.6 °F43.0 °F67 %30.27 inSouth (190°)2.3 mph
1:00 PM53.4 °F42.8 °F67 %30.27 inSouth (190°)2.3 mph
2:00 PM54.9 °F43.0 °F64 %30.27 inSouth (180°)2.3 mph
3:00 PM56.5 °F42.6 °F60 %30.25 inSouth (180°)2.3 mph
4:00 PM56.5 °F43.9 °F63 %30.25 inSouth (170°)2.3 mph
5:00 PM56.0 °F43.0 °F52 %30.24 inSouth (180°)2.3 mph
5:00 PM56.3 °F43.3 °F62 %30.24 inSouth (180°)2.3 mph
6:00 PM53.1 °F43.3 °F70 %30.23 inSSW (210°)1.2 mph
7:00 PM50.5 °F42.4 °F74 %30.24 inCalm
8:00 PM48.7 °F42.1 °F78 %30.24 inNE (40°)1.2 mph
9:00 PM48.2 °F40.6 °F75 %30.25 inNNE (20°)1.2 mph
10:00 PM47.5 °F40.6 °F77 %30.25 inNNE (20°)1.2 mph
11:00 PM47.0 °F40.0 °F70 %30.26 inNorth2.3 mph
11:00 PM46.9 °F40.3 °F78 %30.26 inNorth (360°)2.3 mph
Hourly data recorded from CWWA, located 5.58 miles away from Vancouver - City Hall, British Columbia







STORIES FROM OUR PARTNERS